Hourly Weather Rudnya-Kalynivka

Today, 19 April, Monday

Time Temperature Precipitation Wind Pressure Humidity
00:00 +5°C° 0 mm 1 mps 749 mmHg 90%
01:00 +4°C° 0 mm 1 mps 748 mmHg 90%
02:00 +4°C° 0 mm 1 mps 748 mmHg 90%
03:00 +4°C° 0 mm 1 mps 748 mmHg 90%
04:00 +4°C° 0 mm 1 mps 748 mmHg 91%
05:00 +4°C° 0 mm 1 mps 748 mmHg 91%
06:00 +5°C° 0 mm 1 mps 748 mmHg 87%
07:00 +6°C° 0 mm 2 mps 748 mmHg 83%
08:00 +7°C° 0 mm 2 mps 748 mmHg 78%
09:00 +9°C° 0 mm 2 mps 748 mmHg 71%
10:00 +10°C° 0 mm 3 mps 748 mmHg 64%
11:00 +12°C° 0 mm 3 mps 748 mmHg 57%
12:00 +11°C° 0.1 mm 3 mps 748 mmHg 58%
13:00 +11°C° 0.1 mm 3 mps 747 mmHg 58%
14:00 +11°C° 0 mm 3 mps 747 mmHg 60%
15:00 +11°C° 0 mm 3 mps 747 mmHg 62%
16:00 +11°C° 0 mm 3 mps 747 mmHg 64%
17:00 +10°C° 0 mm 3 mps 747 mmHg 66%
18:00 +9°C° 0 mm 3 mps 747 mmHg 70%
19:00 +8°C° 0 mm 2 mps 747 mmHg 75%
20:00 +7°C° 0 mm 2 mps 747 mmHg 79%
21:00 +7°C° 0 mm 2 mps 747 mmHg 81%
22:00 +7°C° 0 mm 2 mps 746 mmHg 83%
23:00 +7°C° 0 mm 2 mps 746 mmHg 84%

Tomorrow, 20 April, Tuesday

Time Temperature Precipitation Wind Pressure Humidity
00:00 +6°C° 0 mm 2 mps 746 mmHg 87%
01:00 +5°C° 0 mm 2 mps 746 mmHg 89%
02:00 +5°C° 0 mm 2 mps 745 mmHg 91%
03:00 +4°C° 0 mm 2 mps 745 mmHg 93%
04:00 +4°C° 0 mm 2 mps 745 mmHg 94%
05:00 +3°C° 0 mm 2 mps 745 mmHg 96%
06:00 +3°C° 0 mm 3 mps 745 mmHg 93%
07:00 +4°C° 0 mm 3 mps 745 mmHg 91%
08:00 +7°C° 0 mm 3 mps 745 mmHg 88%
09:00 +7°C° 0.1 mm 3 mps 744 mmHg 83%
10:00 +8°C° 0.1 mm 3 mps 744 mmHg 78%
11:00 +9°C° 0.1 mm 3 mps 744 mmHg 73%
12:00 +9°C° 0.1 mm 3 mps 744 mmHg 70%
13:00 +10°C° 0.1 mm 4 mps 743 mmHg 66%
14:00 +10°C° 0.1 mm 4 mps 743 mmHg 63%
15:00 +10°C° 0.1 mm 4 mps 743 mmHg 63%
16:00 +10°C° 0.1 mm 4 mps 743 mmHg 63%
17:00 +10°C° 0.1 mm 4 mps 742 mmHg 64%
18:00 +9°C° 0 mm 3 mps 743 mmHg 71%
19:00 +7°C° 0 mm 3 mps 743 mmHg 77%
20:00 +6°C° 0 mm 2 mps 743 mmHg 84%
21:00 +5°C° 0 mm 2 mps 743 mmHg 86%
22:00 +5°C° 0 mm 2 mps 743 mmHg 88%
23:00 +4°C° 0 mm 2 mps 743 mmHg 90%

Day after tomorrow, 21 April, Wednesday

Time Temperature Precipitation Wind Pressure Humidity
00:00 +4°C° 0 mm 2 mps 743 mmHg 90%
01:00 +4°C° 0 mm 2 mps 743 mmHg 91%
02:00 +4°C° 0 mm 2 mps 743 mmHg 91%
03:00 +4°C° 0 mm 2 mps 743 mmHg 92%
04:00 +4°C° 0 mm 2 mps 743 mmHg 93%
05:00 +3°C° 0 mm 2 mps 743 mmHg 94%
06:00 +5°C° 0 mm 2 mps 743 mmHg 87%
07:00 +6°C° 0 mm 2 mps 743 mmHg 81%
08:00 +7°C° 0 mm 3 mps 743 mmHg 75%
09:00 +8°C° 0.1 mm 3 mps 743 mmHg 74%
10:00 +8°C° 0.1 mm 4 mps 743 mmHg 72%
11:00 +8°C° 0.1 mm 4 mps 743 mmHg 71%
12:00 +10°C° 0.2 mm 4 mps 743 mmHg 69%
13:00 +10°C° 0.2 mm 4 mps 743 mmHg 68%
14:00 +11°C° 0.2 mm 4 mps 743 mmHg 66%
15:00 +11°C° 0.1 mm 3 mps 743 mmHg 66%
16:00 +11°C° 0.1 mm 3 mps 743 mmHg 66%
17:00 +12°C° 0.1 mm 3 mps 743 mmHg 66%
18:00 +10°C° 0.3 mm 3 mps 743 mmHg 73%
19:00 +9°C° 0.3 mm 3 mps 743 mmHg 80%
20:00 +8°C° 0.3 mm 3 mps 744 mmHg 86%
21:00 +7°C° 0.1 mm 3 mps 744 mmHg 87%
22:00 +7°C° 0.1 mm 3 mps 744 mmHg 88%
23:00 +5°C° 0.1 mm 3 mps 744 mmHg 88%

22 April, Thursday

Time Temperature Precipitation Wind Pressure Humidity
00:00 +5°C° 0 mm 3 mps 744 mmHg 89%
01:00 +5°C° 0 mm 3 mps 744 mmHg 89%
02:00 +5°C° 0 mm 3 mps 744 mmHg 90%
03:00 +5°C° 0 mm 3 mps 744 mmHg 90%
04:00 +5°C° 0 mm 3 mps 745 mmHg 91%
05:00 +4°C° 0 mm 3 mps 745 mmHg 92%
06:00 +6°C° 0 mm 4 mps 745 mmHg 86%
07:00 +8°C° 0 mm 4 mps 745 mmHg 80%
08:00 +9°C° 0 mm 5 mps 745 mmHg 74%
09:00 +12°C° 0.1 mm 5 mps 746 mmHg 70%
10:00 +13°C° 0.1 mm 5 mps 746 mmHg 66%
11:00 +14°C° 0.1 mm 5 mps 746 mmHg 61%
12:00 +14°C° 0.4 mm 5 mps 746 mmHg 61%
13:00 +15°C° 0.4 mm 5 mps 746 mmHg 60%
14:00 +15°C° 0.4 mm 5 mps 746 mmHg 60%
15:00 +14°C° 0.5 mm 5 mps 746 mmHg 64%
16:00 +14°C° 0.5 mm 4 mps 746 mmHg 67%
17:00 +13°C° 0.5 mm 4 mps 746 mmHg 71%
18:00 +12°C° 0.1 mm 4 mps 746 mmHg 76%
19:00 +11°C° 0.1 mm 3 mps 746 mmHg 81%
20:00 +10°C° 0.1 mm 3 mps 746 mmHg 85%
21:00 +9°C° 0 mm 3 mps 745 mmHg 86%
22:00 +9°C° 0 mm 3 mps 745 mmHg 86%
23:00 +8°C° 0 mm 3 mps 745 mmHg 87%

23 April, Friday

Time Temperature Precipitation Wind Pressure Humidity
00:00 +8°C° 0 mm 3 mps 745 mmHg 88%
01:00 +7°C° 0 mm 3 mps 745 mmHg 89%
02:00 +7°C° 0 mm 2 mps 745 mmHg 90%
03:00 +6°C° 0 mm 2 mps 745 mmHg 91%
04:00 +6°C° 0 mm 2 mps 745 mmHg 92%
05:00 +7°C° 0 mm 1 mps 745 mmHg 93%
06:00 +7°C° 0 mm 2 mps 745 mmHg 89%
07:00 +8°C° 0 mm 2 mps 745 mmHg 85%
08:00 +10°C° 0 mm 3 mps 745 mmHg 81%
09:00 +8°C° 0.1 mm 4 mps 745 mmHg 84%
10:00 +7°C° 0.1 mm 5 mps 746 mmHg 86%
11:00 +4°C° 0.1 mm 6 mps 746 mmHg 88%
12:00 +3°C° 1 mm 5 mps 747 mmHg 89%
13:00 +3°C° 1 mm 5 mps 747 mmHg 91%
14:00 +3°C° 1 mm 4 mps 747 mmHg 92%
15:00 +4°C° 0.2 mm 3 mps 747 mmHg 88%
16:00 +4°C° 0.2 mm 3 mps 747 mmHg 84%
17:00 +5°C° 0.2 mm 3 mps 747 mmHg 80%
18:00 +5°C° 0 mm 3 mps 747 mmHg 82%
19:00 +5°C° 0 mm 3 mps 748 mmHg 84%
20:00 +5°C° 0 mm 2 mps 748 mmHg 86%
21:00 +3°C° 0 mm 3 mps 748 mmHg 85%
22:00 +3°C° 0 mm 3 mps 748 mmHg 84%
23:00 +2°C° 0 mm 3 mps 748 mmHg 84%

24 April, Saturday

Time Temperature Precipitation Wind Pressure Humidity
00:00 +2°C° 0 mm 3 mps 748 mmHg 86%
01:00 0°C° 0 mm 4 mps 748 mmHg 88%
02:00 0°C° 0 mm 4 mps 748 mmHg 90%
03:00 0°C° 0 mm 4 mps 748 mmHg 91%
04:00 0°C° 0 mm 4 mps 748 mmHg 92%
05:00 -1°C° 0 mm 5 mps 748 mmHg 92%
06:00 0°C° 0 mm 5 mps 749 mmHg 83%
07:00 +1°C° 0 mm 5 mps 749 mmHg 75%
08:00 +2°C° 0 mm 5 mps 749 mmHg 66%
09:00 +3°C° 0 mm 5 mps 749 mmHg 59%
10:00 +5°C° 0 mm 5 mps 749 mmHg 51%
11:00 +6°C° 0 mm 5 mps 749 mmHg 44%
12:00 +7°C° 0 mm 5 mps 749 mmHg 42%
13:00 +7°C° 0 mm 5 mps 749 mmHg 39%
14:00 +8°C° 0 mm 4 mps 749 mmHg 36%
15:00 +8°C° 0 mm 4 mps 749 mmHg 37%
16:00 +9°C° 0 mm 3 mps 749 mmHg 38%
17:00 +9°C° 0 mm 3 mps 748 mmHg 39%
18:00 +8°C° 0 mm 3 mps 748 mmHg 46%
19:00 +5°C° 0 mm 3 mps 748 mmHg 53%
20:00 +3°C° 0 mm 3 mps 748 mmHg 60%
21:00 +3°C° 0 mm 4 mps 748 mmHg 63%
22:00 +3°C° 0 mm 4 mps 747 mmHg 65%
23:00 +3°C° 0 mm 5 mps 747 mmHg 68%
Show more